Погода Имени Попова

Погода Имени Попова : погода сейчас, прогноз погоды и архив. Всё, что Вы хотите узнать о погоде Имени Попова!

Поиск расширенной информации на нашем сайте:

Другие новости

Новости СМИ2

Главная страница сайта

Новости сайта

02.10.2013

Напоминаем, что на нашем новом сайте вы можете получить высокодетализированные прогнозы погоды по пунктам России, СНГ и мира (включающие важные для авиации метеовеличины, такие как направление и скорость ветра, видимость, явления погоды, количество и форма облачности, нижняя и верхняя граница облачности), а также ознакомиться с разнообразными материалами по авиационной метеорологии и подборкой полезных ссылок на эту тему.

Сайт Метеоцентр.Азия посвящён разработке технологий оптимизации авиаметеорологического обслуживания, включая проектирование и перспективное создание нескольких автоматизированных авиаметеорологических систем:
- система выпуска высокодетальных прогностических карт явлений погоды для нижнего воздушного пространства по России и ближнему зарубежью;
- система верификации прогнозов TAF (выпускаемых синоптиками официальных АМСГ РФ и ближнего зарубежья) и AUTOTAF (выпускаемых сайтом Метеоцентр.Азия) - выявление ошибок, онлайн-сопоставление с фактической погодой METAR, автоматическое внесение коррективов в прогнозы при резком отклонении фактической погоды от прогноза, подсчёт оправдываемости прогнозов по элементам и в целом;
- система обработки, анализа и отображения авиаметеорологической информации для применения провайдерами метеорологической информации.


Погода Имени Попова - сегодня

Время (UTC), дата Ветер
(°,м/с) 
Видим.   Явления Облачность Т
(°С)
Тd
(°С)
f(%) Тe
(°С)
Pmin
(гПа)
dP
(гПа)
Po
(мм)
O2
(г/м3)
Тmin Tmax R s Состояние
почвы
18 24.05.17 120 (ЮВ) 20000 м  {снег}  10/10 750 м 
[Sc]
-7.1 -9 86 -10  1005.7  -0.2  754  313           
21 24.05.17 100 (В) 20000 м    10/10 570 м 
[Sc]
-7.2 -8.5 90 -10  1005  -0.6  753  313           
00 25.05.17 110 (В) 20000 м    10/10 750 м 
[Sc]
-6.9 -9.4 82 -10  1004.6  -0.4  753  312           
03 25.05.17 090 (В) 10 км  слаб. снег  10/10 480 м 
[Ns]
-6.5 -7.9 90 -11  1004.5  0.1  753  312  -7.4    0.0  52  неравномерный
сухой снег
100% 
06 25.05.17 080 (В) 10 км  слаб. снег  10/10 750 м 
[Ns]
-6.2 -9.3 79 -11  1004.8  0.3  753  311           
09 25.05.17 050 (СВ) 10 км  слаб. снег  10/10 840 м 
[Ns]
-5.6 -7.9 84 -10  1005.1  0.3  753  311           
12 25.05.17 070 (В) 10 км  слаб. снег  10/10 420 м 
[Ns]
-5.2 -6.8 88 -9  1005.9  0.8  754  310           
15 25.05.17 080 (В) 4000 м  слаб. снег  10/10 500 м 
[Ns]
-5.8 -7.1 90 -10  1006.3  0.4  754  311    -5  0.0     
18 25.05.17 050 (СВ) 10 км  слаб. снег  10/10 480 м 
[Ns]
-7 -8.2 91 -11  1006.7  0.4  755  313           
21 25.05.17 030 (СВ) 20000 м  {снег}  10/0 средняя 
[Ac und]
-8.8 -10.1 90 -13  1007.2  0.4  755  315           
00 26.05.17 360 (С) 20000 м  {снег}  10/10 400 м 
[Sc]
-7.4 -8.5 92 -11  1008.1  756  314           
03 26.05.17 360 (С) 20000 м    10/10 420 м 
[Sc]
-6.4 -8 88 -9  1008.6  0.5  756  313  -13.5    0.0  52  неравномерный
сухой снег
100% 
06 26.05.17 010 (С) 20000 м    10/10 360 м 
[Sc]
-6.1 -8.3 84 -9  1009.5  0.9  757  313           
09 26.05.17 020 (С) 20000 м    10/10 420 м 
[Sc]
-6.1 -8 86 -10  1010.5  757  313           
12 26.05.17 350 (С) 20000 м    10/10 300 м 
[Sc]
-6.7 -8.4 88 -11  1011.6  1.1  758  314           
18 26.05.17 350 (С) 20000 м    10/10 240 м 
[St]
-7.5 -8.7 91 -10  1011.9  0.2  758  315           
21 26.05.17 360 (С) 20000 м    10/10 240 м 
[St]
-7.5 -8.7 91 -11  1011.6  -0.3  758  315           
00 27.05.17 320 (СЗ) 20000 м    10/10 210 м 
[St]
-7.9 -8.7 94 -9  1012  0.4  758  316           
03 27.05.17 330 (СЗ) 20000 м    10/10 240 м 
[St]
-7.2 -9 87 -9  1012.4  0.4  759  315  -7.9      52  неравномерный
сухой снег
100% 
06 27.05.17 210 (ЮЗ) 20000 м    10/10 330 м 
[Sc]
-6.8 -9 84 -8  1013  0.6  759  315           
09 27.05.17 170 (Ю) 20000 м    10/10 360 м 
[Sc]
-4.1 -8.7 70 -4  1013.6  0.6  760  312           
12 27.05.17 110 (В) 20000 м    10/10 400 м 
[Sc]
-6 -8.8 81 -9  1014.3  0.6  760  314           
18 27.05.17 070 (В) 20000 м    10/10 400 м 
[Sc]
-6.4 -7.9 89 -10  1014.1  -0.4  760  314           
00 28.05.17 080 (В) 11-14{14}  2000 м  метель  10/10 210 м 
[St]
-5.6 -6.4 94 -12  1012.1  -1.3  759  313           
03 28.05.17 090 (В) 13-16{17}  1000 м  сильная метель  10/0 средняя 
[As trans]
-4.4 -5.2 94 -11  1010.6  -1.5  757  311  -7.1      50  неравномерный
сухой снег
100% 
Время (UTC), дата Ветер
(°,м/с) 
Видим.   Явления Облачность Т
(°С)
Тd
(°С)
f(%) Тe
(°С)
Pmin
(гПа)
dP
(гПа)
Po
(мм)
O2
(г/м3)
Тmin Tmax R s Состояние
почвы

Для получения пояснительной информации подведите курсор к названию столбца.

ПОГОДА Имени Попова - архив

Всё, что Вы хотите узнать о погоде Имени Попова - удобно и подробно!

Выберите нужную дату (начиная с 1 января 2015* года) и нажмите кнопку "Найти".
Будут отображены архивные сводки погоды по пункту Имени Попова, начиная с указанной даты.


Отображать данные в формате CSV (для использования в таблицах Excel)


Внимание! Наш архив погоды предназначен исключительно для личного некоммерческого использования в познавательных целях. Если Вам необходимы официальные справки о состоянии погоды (для производственных, юридических, коммерческих и т.п. целей), обращайтесь в органы Росгидромета.

*Примечание: данная дата относится к архиву по метеостанциям СССР (Россия, СНГ, Балтия).
Архив по метеостанциям Зарубежной Европы и Азии (кроме Китая) хранится 10 дней, по другим регионам земного шара (Китай, Африка, Америка, Австралия, Океания) - 1 день.

Имени Попова - район местоположения метеостанции


Название, широта, долгота, высота метеостанции:
Имени Попова 73.3°ш. 70.1°д. 7 м над ур. моря [Российская Федерация]

Дополнительная информация

В oтличие oт бoльшинства пoгoдных сайтoв мы публикуем пoдрoбную метеoинфoрмацию в детальнoм прoфессиoнальнoм фoрмате.

Характеристики температуры и влажнoсти вoздуха измеряются на высoте 2 м в тени вдали oт зданий и деревьев.
Скoрoсть ветра измеряется на высoте 10 м (на урoвне рoста челoвека скoрoсть ветра ниже в 1.5-2 раза). Если метеoстанция нахoдится в гoрoде или в лесу, тo скoрoсть ветра занижена на 2-4 м/с пo сравнению с oткрытым местoм. Скoрoсть ветра над акватoриями крупных рек и oзёр, а также на вершинах хoлмoв на 2-5 м/с выше, чем в oбычных услoвиях.
Атмoсфернoе давление в разных тoчках местнoсти мoжет значительнo oтличаться oт давления на метеoстанции, в зависимoсти oт услoвий рельефа (при пoдъёме на 10 м давление пoнижается примернo на 1 мм рт.ст.).